Wind_Speed
21 20 20 20 21 22 24 26 27 27 25 27 29 31 27 27 32 36 38 39 39 40 40 39 36 33 35 35 35 36 36 35 35 34 34 34 35 36 37 39 39 39 38 38
24 24 24 25 25 26 26 26 27 25 23 25 26 25 24 25 29 33 37 39 40 41 42 39 37 37 38 37 37 37 39 37 36 37 36 36 37 39 40 41 41 41 41 40
25 26 28 28 28 28 28 28 28 27 25 26 27 26 24 26 31 35 39 42 43 43 44 45 44 43 42 41 39 41 42 40 40 40 39 40 40 41 42 42 42 42 42 41
21 24 27 28 29 29 30 31 32 30 28 29 31 31 30 32 36 40 43 45 46 46 45 44 43 42 42 41 40 40 41 42 41 41 41 42 42 42 42 42 42 41 42 42
17 20 23 24 25 27 30 32 33 33 32 32 34 38 37 38 41 43 46 47 47 46 45 43 40 39 39 38 39 39 40 40 40 41 42 42 42 41 40 39 39 40 41 42
11 13 15 16 18 23 26 28 29 30 32 33 32 39 42 42 44 46 48 49 49 47 46 44 43 41 40 39 38 37 38 38 38 38 39 39 39 38 38 38 39 41 43 44
7 9 10 11 13 16 19 20 22 23 25 27 27 34 39 40 44 47 49 50 50 50 49 49 49 47 46 44 41 38 37 36 37 37 38 38 38 38 39 40 42 44 46 47
7 9 10 12 13 14 16 18 20 22 22 22 23 28 31 35 38 40 44 47 49 50 51 52 52 51 50 48 45 43 41 41 40 41 40 40 40 41 42 44 46 47 49 49
10 10 12 13 15 16 17 18 21 24 26 26 25 25 30 33 36 39 41 44 46 48 49 51 51 51 51 50 48 47 46 44 44 44 44 45 44 45 46 47 48 49 49 48
9 8 8 10 12 13 15 16 19 23 27 29 29 29 31 34 38 41 42 45 47 48 49 51 51 50 48 49 47 48 48 45 43 44 45 45 45 45 46 47 47 46 45 43
7 7 7 10 13 14 15 17 19 23 27 32 37 36 36 39 42 45 47 46 46 46 45 46 46 45 43 42 41 41 42 40 39 39 39 39 40 41 41 41 41 40 39 38
10 11 10 13 16 18 18 20 22 26 29 33 39 42 39 40 40 43 47 49 49 48 43 41 41 41 40 36 35 35 35 35 34 34 33 34 35 36 37 38 38 37 36 34
15 15 16 17 19 20 21 23 25 28 32 35 39 39 37 38 38 40 42 44 46 47 44 38 33 31 32 32 31 30 30 32 34 34 33 33 34 35 35 35 35 35 34 33
18 18 19 19 21 22 23 25 28 30 32 35 36 34 32 34 35 36 37 36 36 36 36 32 28 27 26 26 27 28 30 31 32 34 33 33 33 33 33 33 33 33 32 32
22 21 21 22 23 24 24 25 28 30 31 33 33 30 29 31 32 31 29 26 25 23 25 25 22 22 23 23 24 26 28 30 31 32 32 32 32 32 31 31 31 31 31 31
27 26 25 25 27 26 25 26 27 28 28 29 29 26 26 27 27 24 21 17 14 14 15 17 19 19 21 23 23 25 27 28 29 30 31 30 30 30 30 30 30 30 30 31
31 30 29 28 29 29 27 27 26 26 25 26 26 24 22 23 23 21 17 14 10 10 12 14 16 18 21 22 23 25 25 26 26 28 28 28 28 28 28 28 28 29 29 30
32 33 33 32 31 30 28 26 25 24 23 23 24 22 20 20 20 19 16 13 10 9 10 13 15 17 19 20 22 22 23 23 23 24 24 25 25 25 25 26 27 28 28 28
32 33 35 34 33 31 27 26 24 23 21 21 22 20 18 18 18 18 16 14 12 10 10 11 13 15 16 17 18 18 19 20 20 20 20 21 21 22 22 23 23 24 25 25
27 28 30 32 34 33 29 25 23 22 20 20 20 19 18 17 17 17 16 15 13 12 10 11 11 12 12 14 15 16 16 16 17 18 19 19 19 19 19 19 20 21 23 24
24 25 26 27 30 31 29 28 25 23 21 20 19 19 18 17 16 16 16 15 13 12 11 11 11 11 12 12 13 14 14 15 15 15 15 15 15 15 16 17 18 19 20 21
24 26 25 25 28 28 28 30 27 25 22 21 20 18 17 16 15 15 15 14 13 12 11 11 10 11 11 11 12 13 14 14 14 14 13 13 13 13 14 15 16 17 18 19
24 26 27 26 27 28 29 30 30 27 25 22 21 18 16 14 13 12 12 12 12 11 10 9 9 8 8 8 9 10 10 11 11 11 11 11 11 12 13 14 15 15 16 16
22 25 26 26 26 28 29 30 31 29 27 24 22 21 18 15 13 12 11 11 10 10 9 9 8 7 6 6 6 6 6 7 7 8 8 8 9 10 11 12 13 13 14 15
23 24 24 24 24 24 24 26 27 28 27 24 23 23 20 17 15 14 13 12 11 11 10 9 8 7 7 6 6 5 5 5 5 5 6 7 8 9 10 11 12 13 14 16
26 25 25 24 24 25 23 23 23 25 26 25 24 24 22 20 18 18 17 16 15 14 12 11 11 10 9 9 8 8 7 7 7 7 7 8 9 10 11 12 13 14 15 17
Wind_Direction
241 241 239 240 241 241 241 242 244 244 238 243 247 250 247 247 252 256 259 260 260 262 264 266 263 262 259 256 259 260 259 264 270 274 278 281 283 284 286 287 289 291 293 293
239 239 241 241 243 246 248 250 252 251 241 242 247 250 249 251 255 258 260 262 265 267 270 269 268 270 272 270 270 264 262 261 265 269 274 277 279 281 282 285 287 289 290 291
243 242 243 244 247 251 254 253 252 250 238 237 241 243 242 245 252 258 262 267 269 272 273 273 274 274 273 271 272 269 265 266 268 269 271 274 277 278 280 282 283 285 287 287
247 249 251 252 253 256 257 258 257 255 246 236 239 239 237 238 245 252 259 265 270 273 274 274 273 272 272 272 272 273 268 266 267 268 271 274 276 278 279 279 281 282 284 286
250 252 257 261 260 259 259 260 261 262 259 249 240 243 242 243 249 255 262 267 270 273 274 274 274 273 272 273 274 274 271 269 268 268 271 274 276 278 279 280 281 283 285 286
254 255 259 261 259 259 262 264 266 266 264 260 250 248 250 248 253 258 263 268 271 272 272 273 273 274 273 273 274 272 271 270 270 272 274 276 278 279 280 281 283 284 285 287
256 255 257 258 259 262 266 268 269 267 266 267 261 254 256 254 253 255 258 262 265 267 268 269 270 271 272 272 270 272 271 273 273 274 275 276 277 278 280 282 284 285 286 287
258 256 258 259 259 261 267 272 275 279 277 273 267 267 266 264 261 259 259 260 261 263 263 264 265 266 267 268 267 267 269 271 272 273 273 274 275 277 280 282 284 286 287 287
270 265 266 267 268 267 268 272 278 282 286 286 282 277 272 271 269 267 264 262 262 262 263 263 265 264 264 264 263 263 266 268 270 271 272 273 274 276 278 281 283 285 286 287
286 282 277 281 281 280 280 281 281 285 290 293 293 289 283 278 274 271 269 266 263 261 261 262 264 266 264 263 262 259 260 264 269 272 272 272 273 274 277 280 282 284 285 286
298 293 290 286 289 293 293 294 294 294 296 299 300 298 296 287 279 275 272 267 262 261 260 259 261 263 265 264 262 259 258 262 268 271 273 272 273 274 276 279 281 282 282 284
299 298 299 295 296 298 301 304 303 303 304 304 304 305 302 295 287 280 273 267 263 260 261 260 259 259 262 263 264 260 257 260 265 268 270 271 272 274 276 278 279 279 280 282
294 296 298 297 296 299 304 306 306 307 309 310 311 311 307 303 297 289 282 276 269 264 263 259 256 255 257 259 258 258 259 260 262 265 268 270 271 273 275 276 277 278 279 280
293 293 295 295 295 297 301 305 308 310 313 316 318 315 313 310 305 299 291 284 275 267 261 260 258 256 258 257 257 258 259 260 262 264 266 268 269 271 273 275 276 277 278 280
294 293 292 292 291 292 298 302 305 310 315 321 323 320 317 315 312 307 300 287 274 265 257 256 258 257 256 256 257 259 259 260 262 263 264 265 267 269 272 274 276 277 279 281
294 293 292 292 291 292 296 299 304 309 317 322 324 320 318 320 323 320 312 302 277 260 254 252 254 255 255 257 259 259 259 260 261 261 262 264 266 269 272 275 277 279 280 282
287 291 291 290 289 290 292 296 301 306 314 321 325 324 321 324 331 331 328 321 304 277 257 250 251 254 255 257 257 256 257 258 259 259 260 262 266 269 272 275 278 281 282 283
281 282 284 286 285 284 289 291 296 302 311 318 326 329 328 327 331 336 335 330 320 300 275 263 259 259 258 257 256 255 255 255 255 257 259 262 265 269 273 276 279 281 283 284
282 280 279 278 278 279 282 287 293 297 306 312 321 326 328 329 330 333 334 332 328 315 295 282 272 267 265 262 260 260 259 257 255 255 257 261 265 270 275 278 281 283 285 288
297 293 285 279 277 278 276 281 286 289 296 304 313 320 326 328 331 332 332 331 330 325 312 299 291 285 279 273 270 268 266 263 260 258 261 264 268 272 276 280 285 289 292 294
308 303 298 290 284 283 284 281 280 285 290 300 309 317 323 325 327 330 333 333 329 324 319 312 305 297 290 284 278 276 271 267 265 265 266 271 278 281 283 287 292 295 297 299
314 309 304 296 289 287 286 285 283 282 286 294 302 309 316 319 321 324 330 333 333 329 324 317 310 302 295 288 281 277 273 268 264 266 270 274 278 283 288 293 298 302 304 305
313 310 305 300 292 286 283 283 283 280 281 285 290 296 302 307 312 318 325 330 332 334 332 326 318 309 298 289 282 276 269 263 261 263 266 270 276 283 289 295 301 304 306 306
312 309 308 306 301 292 284 281 278 275 275 276 280 285 288 292 294 299 307 313 317 321 325 328 324 318 310 299 288 274 263 258 259 261 263 268 276 281 287 292 297 301 303 304
309 309 312 312 303 290 290 287 281 275 272 271 273 276 278 279 279 282 287 292 298 304 308 312 312 309 305 298 292 283 276 274 272 271 270 273 277 282 287 292 296 299 301 302
305 309 311 313 306 299 294 288 283 279 274 268 268 269 271 273 273 273 276 281 284 288 293 295 295 295 295 294 292 290 288 286 285 284 283 285 287 290 293 296 298 300 302 302
Height
5859 5862 5862 5863 5864 5864 5865 5866 5867 5870 5871 5871 5870 5871 5874 5875 5876 5877 5878 5880 5882 5882 5882 5880 5879 5879 5881 5882 5882 5883 5884 5884 5884 5885 5884 5884 5884 5883 5882 5881 5880 5880 5879 5879
5855 5856 5857 5857 5858 5860 5861 5863 5863 5865 5866 5866 5866 5867 5868 5869 5870 5870 5871 5871 5873 5873 5873 5871 5872 5874 5875 5875 5876 5874 5872 5873 5875 5875 5876 5876 5876 5875 5875 5874 5872 5871 5871 5870
5850 5852 5852 5853 5854 5855 5856 5857 5858 5859 5861 5861 5862 5863 5864 5864 5865 5866 5865 5865 5866 5866 5866 5865 5866 5867 5867 5866 5867 5865 5863 5864 5866 5866 5867 5867 5867 5867 5866 5866 5865 5864 5863 5862
5845 5846 5847 5848 5849 5850 5851 5851 5851 5853 5856 5857 5858 5859 5860 5859 5860 5859 5859 5858 5858 5858 5857 5856 5857 5857 5857 5857 5856 5855 5856 5856 5857 5857 5857 5858 5858 5859 5858 5857 5856 5855 5854 5853
5840 5841 5841 5842 5844 5844 5843 5844 5845 5846 5848 5851 5853 5852 5855 5855 5854 5853 5851 5850 5849 5848 5847 5846 5846 5846 5846 5846 5846 5846 5846 5846 5847 5848 5849 5849 5849 5849 5849 5848 5848 5847 5845 5844
5837 5837 5837 5838 5838 5838 5837 5838 5838 5839 5840 5842 5846 5845 5845 5848 5848 5847 5844 5841 5840 5839 5838 5836 5835 5835 5835 5836 5836 5836 5837 5837 5838 5839 5839 5839 5839 5840 5840 5839 5839 5838 5836 5834
5834 5834 5834 5834 5834 5834 5833 5833 5833 5832 5832 5833 5835 5835 5836 5837 5837 5836 5834 5832 5829 5829 5828 5826 5825 5824 5824 5825 5826 5827 5827 5828 5829 5829 5829 5830 5830 5830 5830 5830 5829 5828 5826 5824
5832 5833 5832 5831 5830 5830 5829 5829 5828 5827 5827 5827 5827 5826 5827 5825 5824 5824 5823 5821 5818 5817 5816 5815 5814 5813 5812 5813 5814 5816 5818 5819 5819 5819 5819 5819 5820 5820 5820 5819 5818 5817 5815 5813
5829 5829 5828 5827 5826 5826 5825 5824 5824 5822 5819 5818 5819 5819 5817 5814 5813 5812 5811 5809 5806 5804 5802 5801 5801 5801 5800 5801 5802 5804 5806 5808 5808 5809 5809 5809 5809 5809 5809 5808 5807 5806 5804 5802
5825 5825 5824 5823 5822 5822 5821 5820 5819 5816 5813 5810 5809 5809 5808 5805 5801 5799 5797 5794 5793 5791 5789 5788 5788 5789 5788 5788 5790 5791 5794 5796 5797 5798 5798 5798 5798 5798 5798 5798 5796 5795 5793 5791
5822 5822 5821 5820 5818 5817 5816 5815 5813 5810 5808 5803 5798 5800 5798 5793 5788 5785 5782 5780 5778 5776 5774 5773 5775 5776 5777 5778 5778 5779 5782 5785 5787 5787 5787 5787 5788 5788 5788 5787 5786 5785 5783 5782
5820 5819 5818 5817 5815 5812 5811 5810 5807 5805 5801 5797 5791 5789 5784 5778 5773 5770 5766 5764 5762 5762 5761 5761 5762 5764 5766 5768 5769 5771 5772 5775 5777 5778 5778 5778 5778 5778 5778 5777 5777 5776 5775 5774
5817 5817 5815 5813 5813 5809 5807 5804 5801 5798 5794 5788 5782 5780 5772 5766 5760 5756 5752 5748 5747 5748 5751 5751 5752 5753 5755 5758 5760 5762 5764 5765 5767 5769 5769 5769 5769 5769 5769 5768 5768 5767 5766 5766
5814 5813 5812 5810 5807 5804 5802 5799 5795 5791 5786 5781 5775 5769 5764 5756 5749 5744 5740 5736 5735 5736 5740 5742 5743 5745 5747 5749 5751 5753 5755 5756 5758 5759 5760 5760 5761 5760 5760 5760 5760 5759 5759 5758
5809 5808 5806 5804 5801 5799 5797 5794 5789 5785 5780 5774 5769 5762 5756 5749 5742 5736 5730 5726 5725 5727 5731 5733 5736 5738 5740 5742 5743 5744 5746 5747 5749 5750 5751 5751 5752 5752 5752 5752 5752 5751 5751 5750
5802 5801 5800 5798 5795 5793 5791 5788 5784 5779 5774 5769 5763 5758 5751 5744 5737 5730 5725 5721 5720 5721 5723 5726 5729 5731 5733 5734 5736 5737 5738 5739 5740 5741 5742 5743 5743 5744 5744 5744 5744 5744 5743 5742
5795 5794 5792 5791 5788 5786 5785 5783 5779 5775 5770 5765 5759 5754 5747 5740 5734 5728 5723 5720 5718 5718 5719 5721 5723 5724 5726 5727 5728 5729 5730 5731 5732 5733 5734 5734 5735 5736 5736 5736 5736 5736 5735 5735
5788 5786 5784 5783 5781 5780 5780 5776 5773 5770 5765 5760 5755 5749 5743 5738 5732 5727 5723 5720 5717 5716 5717 5717 5718 5718 5719 5720 5721 5722 5722 5723 5724 5725 5726 5726 5727 5728 5728 5728 5728 5728 5728 5727
5780 5779 5776 5774 5772 5771 5771 5769 5767 5764 5760 5756 5751 5747 5741 5736 5731 5727 5723 5719 5716 5715 5714 5714 5714 5714 5714 5714 5714 5715 5715 5716 5717 5718 5719 5719 5720 5721 5721 5721 5721 5721 5720 5719
5772 5770 5768 5765 5763 5761 5764 5763 5760 5759 5755 5752 5748 5743 5739 5734 5730 5726 5721 5718 5715 5713 5712 5711 5710 5709 5709 5709 5710 5710 5710 5711 5712 5713 5713 5714 5714 5714 5715 5715 5715 5714 5713 5712
5765 5762 5760 5757 5754 5753 5754 5753 5753 5752 5750 5747 5743 5740 5735 5731 5728 5724 5720 5717 5714 5712 5710 5709 5707 5706 5706 5706 5706 5706 5707 5707 5708 5708 5708 5709 5709 5709 5710 5710 5709 5708 5707 5706
5759 5756 5753 5750 5747 5748 5746 5744 5744 5744 5743 5741 5738 5736 5733 5729 5726 5722 5718 5715 5713 5710 5708 5707 5705 5704 5704 5703 5703 5703 5703 5704 5704 5704 5704 5705 5705 5705 5705 5705 5704 5703 5702 5700
5756 5752 5747 5745 5743 5740 5738 5736 5736 5736 5735 5735 5733 5732 5730 5727 5724 5721 5718 5715 5712 5710 5708 5706 5704 5703 5702 5701 5701 5701 5701 5701 5701 5701 5701 5701 5701 5701 5700 5700 5699 5698 5697 5695
5752 5747 5742 5738 5735 5732 5730 5728 5727 5727 5727 5727 5727 5726 5725 5724 5721 5719 5717 5714 5712 5709 5707 5705 5704 5702 5701 5700 5699 5699 5698 5698 5698 5697 5697 5697 5697 5696 5696 5696 5695 5694 5693 5691
5747 5742 5738 5734 5730 5726 5723 5721 5719 5718 5718 5719 5719 5719 5719 5718 5717 5716 5714 5712 5710 5708 5706 5704 5703 5702 5700 5699 5698 5697 5696 5696 5695 5694 5694 5693 5693 5692 5692 5691 5690 5689 5688 5687
5740 5736 5732 5729 5725 5720 5718 5715 5712 5710 5710 5710 5711 5711 5711 5712 5711 5710 5709 5707 5706 5705 5704 5702 5701 5700 5698 5697 5696 5695 5694 5693 5692 5692 5691 5690 5689 5689 5688 5687 5686 5685 5683 5682